Weather History for Shreveport, LA

Change the Weather History Date:

Friday, November 2, 2012

  Actual Average Record
Temperature  
Mean Temperature 72 °F 61 °F  
Max Temperature 84 °F 73 °F 86 °F (1936)
Min Temperature 60 °F 49 °F 26 °F (1951)
Degree Days  
Heating Degree Days 0 6  
Month to date heating degree days 1 11  
Since 1 July heating degree days 103 97  
Cooling Degree Days 7 2  
Month to date cooling degree days 7 4  
Year to date cooling degree days 2923 2453  
Growing Degree Days 22 (Base 50)    
Moisture  
Dew Point 60 °F    
Average Humidity 65    
Maximum Humidity 90    
Minimum Humidity 40    
Precipitation  
Precipitation 0.00 in 0.16 in 1.82 in (2010)
Month to date precipitation 0.00 0.32  
Year to date precipitation 45.17 42.43  
Snow  
Snow 0.00 in - - ()
Month to date snowfall 0.0  
Since 1 July snowfall 0.0  
Since 1 September snowfall 0.0  
Snow Depth 0.00 in    
Sea Level Pressure  
Sea Level Pressure 29.97 in    
Wind  
Wind Speed 8 mph (SW)    
Max Wind Speed 15 mph    
Max Gust Speed 20 mph    
Visibility 10 miles    
Events      
T = Trace of Precipitation, MM = Missing Value Source: NWS Daily Summary

Daily Weather History Graph

Daily Weather History Graph

Search for Another Location

Airport:

Trip Planner

Search our weather history database for the weather conditions in past years. The results will help you decide how hot, cold, wet, or windy it might be!

Date:

Astronomy

Nov. 02, 2012 Rise Set
Actual Time 7:33 AM CDT 6:23 PM CDT
Civil Twilight 7:08 AM CDT 6:48 PM CDT
Nautical Twilight 6:39 AM CDT 7:17 PM CDT
Astronomical Twilight 6:10 AM CDT 7:46 PM CDT
Moon 9:17 PM CDT 10:48 AM CDT
Length of Visible Light 11h 40m
Length of Day
10h 49m
Waning Gibbous, 87% of the Moon is Illuminated
Nov 2
Waning Gibbous
Nov 6
Last Quarter
Nov 13
New
Nov 20
First Quarter
Nov 28
Full

Hourly Weather History & Observations

Time (CDT) Temp. Heat Index Dew Point Humidity Pressure Visibility Wind Dir Wind Speed Gust Speed Precip Events Conditions
12:56 AM 64.0 °F - 59.0 °F 84% 29.95 in 10.0 mi SSW 5.8 mph - N/A   Clear
1:56 AM 63.0 °F - 57.9 °F 84% 29.94 in 10.0 mi SW 6.9 mph - N/A   Clear
2:56 AM 63.0 °F - 57.9 °F 84% 29.94 in 10.0 mi SW 4.6 mph - N/A   Clear
3:56 AM 64.0 °F - 57.9 °F 80% 29.94 in 10.0 mi SW 6.9 mph - N/A   Clear
4:56 AM 64.0 °F - 59.0 °F 84% 29.95 in 10.0 mi SW 8.1 mph - N/A   Clear
5:56 AM 64.0 °F - 59.0 °F 84% 29.95 in 10.0 mi SW 6.9 mph - N/A   Partly Cloudy
6:56 AM 62.1 °F - 59.0 °F 90% 29.97 in 10.0 mi WSW 4.6 mph - N/A   Partly Cloudy
7:56 AM 62.1 °F - 59.0 °F 90% 29.98 in 10.0 mi SW 5.8 mph - N/A   Mostly Cloudy
8:56 AM 64.4 °F - 60.8 °F 88% 30.01 in 10.0 mi SW 5.8 mph - N/A   Mostly Cloudy
9:56 AM 71.1 °F - 62.1 °F 73% 30.02 in 10.0 mi WSW 11.5 mph - N/A   Clear
10:56 AM 75.9 °F - 62.1 °F 62% 30.03 in 10.0 mi WSW 12.7 mph - N/A   Clear
11:56 AM 79.0 °F - 63.0 °F 58% 30.02 in 10.0 mi SW 8.1 mph - N/A   Partly Cloudy
12:56 PM 81.0 °F 82.2 °F 63.0 °F 54% 30.00 in 10.0 mi WSW 11.5 mph - N/A   Partly Cloudy
1:56 PM 82.9 °F 83.2 °F 60.1 °F 46% 29.97 in 10.0 mi WSW 9.2 mph - N/A   Clear
2:56 PM 84.0 °F 83.8 °F 59.0 °F 43% 29.96 in 10.0 mi WSW 12.7 mph - N/A   Clear
3:56 PM 84.0 °F 83.5 °F 57.9 °F 41% 29.95 in 10.0 mi SW 8.1 mph - N/A   Partly Cloudy
4:56 PM 82.0 °F 82.1 °F 59.0 °F 45% 29.95 in 10.0 mi SSW 9.2 mph - N/A   Partly Cloudy
5:56 PM 78.1 °F - 59.0 °F 52% 29.95 in 10.0 mi SSW 5.8 mph - N/A   Partly Cloudy
6:56 PM 72.0 °F - 61.0 °F 68% 29.96 in 10.0 mi South 5.8 mph - N/A   Partly Cloudy
7:56 PM 69.1 °F - 61.0 °F 75% 29.98 in 10.0 mi South 5.8 mph - N/A   Partly Cloudy
8:56 PM 66.0 °F - 61.0 °F 84% 29.98 in 10.0 mi South 4.6 mph - N/A   Clear
9:56 PM 66.0 °F - 60.1 °F 81% 29.99 in 10.0 mi South 4.6 mph - N/A   Clear
10:56 PM 64.9 °F - 60.1 °F 84% 29.99 in 10.0 mi South 5.8 mph - N/A   Clear
11:56 PM 66.9 °F - 61.0 °F 81% 30.00 in 10.0 mi SSW 9.2 mph - N/A   Clear